AO-07 1 07530U 74089B 23089.83548939 -.00000013 00000-0 20541-3 0 9994 2 07530 101.9432 75.9975 0011996 212.3192 264.6596 12.53662796213590 UO-11 1 14781U 84021B 23089.54570600 .00003582 00000-0 42993-3 0 9993 2 14781 97.6511 69.5694 0009962 98.7479 261.4865 14.84578583103471 AO-16 1 20439U 90005D 23089.20650674 .00000505 00000-0 20098-3 0 9996 2 20439 98.8798 77.4303 0011903 76.3711 347.1585 14.33058228733846 LO-19 1 20442U 90005G 23089.42350096 .00000523 00000-0 20675-3 0 9990 2 20442 98.8368 64.2889 0012680 53.0806 307.1537 14.33212452734122 HUBBLE 1 20580U 90037B 23089.29486789 .00006769 00000-0 36797-3 0 9992 2 20580 28.4702 72.6777 0002547 243.0386 146.5087 15.12537277609769 MET-2/21 1 22782U 93055A 23089.09337284 .00000131 00000-0 10452-3 0 9991 2 22782 82.5494 147.5506 0020867 265.4171 158.9700 13.83879635493786 AO-27 1 22825U 93061C 23088.87861199 .00000276 00000-0 12418-3 0 9992 2 22825 98.8519 130.4527 0007472 303.3634 56.6832 14.30273775538954 IO-26 1 22826U 93061D 23089.11175005 .00000302 00000-0 13338-3 0 9997 2 22826 98.8464 130.5551 0007898 286.6362 73.3952 14.30630805539507 FO-29 1 24278U 96046B 23089.44164660 .00000043 00000-0 82196-4 0 9998 2 24278 98.5235 78.7479 0349197 261.1519 94.9939 13.53140016314530 NOAA-15 1 25338U 98030A 23089.79824610 .00000401 00000-0 18521-3 0 9995 2 25338 98.6153 120.1650 0010528 176.4893 183.6363 14.26280113294085 GO-32 1 25397U 98043D 23089.44670767 .00000295 00000-0 14851-3 0 9991 2 25397 98.8599 46.2621 0001789 40.6547 319.4764 14.23848308284344 ISS 1 25544U 98067A 23089.80973234 .00211559 00000-0 37048-2 0 9995 2 25544 51.6400 356.8793 0007573 138.6476 346.0489 15.49289518389631 NO-44 1 26931U 01043C 23089.49688522 .00000600 00000-0 25995-3 0 9994 2 26931 67.0526 40.0002 0007051 282.4393 77.5919 14.30871319122481 SO-50 1 27607U 02058C 23089.63360238 .00002835 00000-0 40226-3 0 9995 2 27607 64.5548 145.7159 0075309 240.3359 119.0232 14.77034623 90833 CO-55 1 27844U 03031E 23089.48437133 .00000838 00000-0 39360-3 0 9990 2 27844 98.6810 97.8887 0009751 1.1323 358.9875 14.22703350 24578 CO-57 1 27848U 03031J 23088.97615901 .00000733 00000-0 34978-3 0 9992 2 27848 98.6848 97.8326 0009963 17.2291 342.9223 14.22223547 24292 RS-22 1 27939U 03042A 23089.74524948 .00002389 00000-0 42398-3 0 9995 2 27939 98.2289 236.1857 0012939 29.3363 330.8582 14.68124494 43034 NOAA-18 1 28654U 05018A 23089.81635049 .00000389 00000-0 23299-3 0 9995 2 28654 98.9140 164.5756 0013479 239.0198 120.9650 14.12900806920508 CO-58 1 28895U 05043F 23088.87093562 .00003433 00000-0 64399-3 0 9992 2 28895 98.1392 221.6142 0015464 325.2324 34.7868 14.65311530929426 CO-65 1 32785U 08021C 23089.12523758 .00008382 00000-0 83972-3 0 9994 2 32785 97.6981 56.8499 0012801 15.9449 344.2171 14.91557957809105 AAUSAT2 1 32788U 08021F 23089.46177914 .00017247 00000-0 13158-2 0 9991 2 32788 97.5579 70.7628 0004373 250.0617 110.0137 15.02062038811381 DO-64 1 32789U 08021G 23089.02681271 .00066089 00000-0 24039-2 0 9998 2 32789 97.3139 111.5086 0008805 63.1915 297.0224 15.27960256815363 CO-66 1 32791U 08021J 23088.88960217 .00010814 00000-0 97710-3 0 9996 2 32791 97.6495 61.8862 0010957 327.7038 32.3511 14.95596704809885 RS-30 1 32953U 08025A 23089.57377190 .00000024 00000-0 10000-3 0 9998 2 32953 82.5097 5.9919 0019990 359.0810 1.0236 12.43121210673883 PRISM 1 33493U 09002B 23089.43428691 .00018111 00000-0 12894-2 0 9990 2 33493 98.2512 98.5279 0015255 314.3943 45.6031 15.04594972771905 NOAA-19 1 33591U 09005A 23089.85110345 .00000370 00000-0 22387-3 0 9999 2 33591 99.1102 134.4924 0014893 103.2605 257.0228 14.12721856728880 SRMSAT 1 37841U 11058D 23089.09713963 .00000598 00000-0 18344-3 0 9993 2 37841 19.9732 328.1983 0011829 242.3975 271.7293 14.10862586591842 HRBE 1 37855U 11061F 23089.70431949 .00040125 00000-0 13876-2 0 9995 2 37855 101.7034 7.7145 0127609 279.9173 78.7664 15.22301644625079 RS-40 1 38735U 12041C 23088.84555106 -.00000003 00000-0 -90752-4 0 9991 2 38735 82.4720 87.5687 0018424 108.0425 252.2663 12.42592031483966 ZACUBE-1 1 39417U 13066B 23089.37779639 .00006402 00000-0 74929-3 0 9999 2 39417 97.6772 53.8843 0055268 184.6697 175.4010 14.84279843505505 Delfi-N3xt 1 39428U 13066N 23089.53933336 .00010275 00000-0 14956-2 0 9991 2 39428 97.8310 17.2236 0114408 81.9714 279.4456 14.71632306500741 GOMX-1 1 39430U 13066Q 23089.87205064 .00003384 00000-0 59697-3 0 9996 2 39430 97.7879 345.5635 0145231 220.7424 138.2800 14.61432315498100 LO-74 1 39440U 13066AA 23089.08867266 .00006789 00000-0 88713-3 0 9991 2 39440 97.7644 40.4940 0074454 284.9976 74.3003 14.78834601503668 AO-73 1 39444U 13066AE 23089.15735059 .00006940 00000-0 78303-3 0 9990 2 39444 97.6636 56.1578 0054097 171.2778 188.9391 14.85794657504490 SPROUT 1 39770U 14029E 23089.34381275 .00031519 00000-0 26217-2 0 9996 2 39770 97.9547 214.5649 0011007 215.8408 144.2031 14.98576835480336 DTUSAT-2 1 40030U 14033W 23089.31598104 .00008712 00000-0 85853-3 0 9991 2 40030 97.9613 28.9225 0010635 181.6298 178.4887 14.92236537476745 EO-80 1 40032U 14033Y 23088.82250544 .00007939 00000-0 78326-3 0 9998 2 40032 97.9609 28.4411 0010460 185.8513 174.2585 14.92225651476133 HODOYOSHI-1 1 40299U 14070B 23089.79293038 .00014999 00000-0 49057-3 0 9999 2 40299 97.2022 154.5633 0011034 190.4636 303.2145 15.31739507466806 FIREBIRD FU3 1 40377U 15003B 23089.38292562 .00116702 00000-0 17258-2 0 9991 2 40377 99.0756 26.2294 0065450 123.9985 236.7504 15.52398222452345 FIREBIRD FU4 1 40378U 15003C 23089.38904295 .00117177 00000-0 17242-2 0 9995 2 40378 99.0782 26.5358 0065682 123.2090 237.5478 15.52513164452350 GRIFEX 1 40379U 15003D 23089.83953996 .00045211 00000-0 11614-2 0 9994 2 40379 99.0785 8.1439 0091943 178.9024 181.2433 15.34865026451344 XW-2A 1 40903U 15049E 23089.74947007 .00365518 52836-4 10947-2 0 9994 2 40903 97.1216 157.2465 0005276 163.6707 294.1200 15.92297635424001 XW-2C 1 40906U 15049H 23089.79224713 .00017376 00000-0 71120-3 0 9993 2 40906 97.4975 96.7740 0014638 79.3845 45.4768 15.24284207416441 XW-2D 1 40907U 15049J 23089.76265777 .00020426 00000-0 79867-3 0 9992 2 40907 97.4963 97.0893 0013641 75.1067 12.3939 15.25795359416512 LILACSAT-2 1 40908U 15049K 23089.80062678 .00009118 00000-0 44202-3 0 9993 2 40908 97.5274 93.1343 0016388 101.6257 16.0328 15.18630021415892 XW-2E 1 40909U 15049L 23089.76649446 .00036482 00000-0 11226-2 0 9996 2 40909 97.4607 102.6602 0011653 53.8852 0.4098 15.33502435417106 XW-2F 1 40910U 15049M 23089.74392024 .00036180 00000-0 11342-2 0 9997 2 40910 97.4688 101.8534 0012417 54.7202 63.5836 15.32903473416857 XW-2B 1 40911U 15049N 23089.75279912 .00020223 00000-0 79526-3 0 9999 2 40911 97.4939 97.5614 0013582 76.7370 37.2540 15.25607812416390 DCBB 1 40912U 15049P 23089.71868811 .00044065 00000-0 11833-2 0 9994 2 40912 97.4261 106.2717 0010126 20.7342 92.1476 15.37750908417522 IO-86 1 40931U 15052B 23089.90713231 .00001634 00000-0 13668-3 0 9999 2 40931 5.9985 285.3459 0013481 268.0751 91.8016 14.77129644405769 ATHENOXAT-1 1 41168U 15077C 23089.35566637 .00100522 00000-0 23057-2 0 9992 2 41168 14.9637 112.1309 0004561 305.7094 169.6805 15.40872997404075 ChubuSat-2 1 41338U 16012B 23089.08201650 .00007438 00000-0 52855-3 0 9993 2 41338 31.0045 3.3049 0011957 109.7053 250.4874 15.03299550390462 ChubuSat-3 1 41339U 16012C 23089.15837399 .00006365 00000-0 45240-3 0 9995 2 41339 31.0130 359.8105 0011869 118.4567 357.5710 15.03221004390477 Horyu-4 1 41340U 16012D 23089.05753938 .00012583 00000-0 82066-3 0 9998 2 41340 31.0053 331.8453 0011048 170.5047 189.5800 15.06641328390774 e-st@r-II 1 41459U 16025D 23089.77213375 .00032184 00000-0 10499-2 0 9997 2 41459 98.1928 283.3859 0116658 11.5218 115.8692 15.25298996380925 AAUSAT4 1 41460U 16025E 23089.84474461 .00085890 00000-0 17898-2 0 9994 2 41460 98.1724 293.6193 0079992 332.5765 38.9464 15.41838128381645 LO-87 1 41557U 16033B 23089.85055230 .00063375 00000-0 11223-2 0 9990 2 41557 97.3821 195.2130 0007168 74.0116 43.9748 15.50046867381454 NuSat2 1 41558U 16033C 23089.79214931 .00069852 00000-0 11394-2 0 9994 2 41558 97.4097 202.5983 0006408 58.5195 63.3709 15.52343189381765 Lapan A3 1 41603U 16040E 23089.72720598 .00003785 00000-0 16863-3 0 9997 2 41603 97.1751 118.9051 0011427 227.7715 267.1349 15.21961815375553 Pratham 1 41783U 16059A 23089.34931400 .00001547 00000-0 30299-3 0 9993 2 41783 97.8787 123.9427 0032805 352.6391 7.4326 14.63800682347448 TY-1 1 41844U 16066D 23089.81481572 .00059359 00000-0 12475-2 0 9990 2 41844 97.3772 107.3944 0008559 359.5191 121.3807 15.45095881355546 CAS-2T 1 41847U 16066G 23088.79678297 .00003023 00000-0 45462-3 0 9991 2 41847 98.5109 157.7145 0361734 75.6558 288.4498 14.39451984335381 EO-88 1 42017U 17008BX 23089.17412134 .00121914 00000-0 16771-2 0 9997 2 42017 97.2226 158.3615 0002756 261.8792 98.2151 15.56851929341092 CAS-4B 1 42759U 17034B 23089.78133774 .00014597 00000-0 75825-3 0 9990 2 42759 43.0165 191.0744 0011804 312.8039 188.3051 15.15873484319739 CAS-4A 1 42761U 17034D 23089.80021065 .00012946 00000-0 67263-3 0 9998 2 42761 43.0168 189.5288 0012338 313.1003 192.7487 15.15940920319741 NIUSat 1 42766U 17036B 23089.04510292 .00034174 00000-0 10019-2 0 9999 2 42766 97.1684 122.3355 0011591 38.5545 321.6525 15.35048032320459 Aalto 1 1 42775U 17036L 23088.81800954 .00027066 00000-0 86311-3 0 9991 2 42775 97.1638 121.2797 0011470 41.1331 319.0774 15.32425315320351 URSA MAIOR 1 42776U 17036M 23089.09763370 .00029565 00000-0 90138-3 0 9991 2 42776 97.1644 122.6825 0010737 38.2088 321.9915 15.33849333320458 Max Valier Sat 1 42778U 17036P 23089.06616833 .00030449 00000-0 89384-3 0 9995 2 42778 97.1684 125.9356 0009301 41.2266 318.9679 15.35055353320575 Pegasus 1 42784U 17036V 23088.82906352 .00049829 00000-0 12126-2 0 9994 2 42784 97.1601 127.5318 0007873 37.6256 322.5541 15.40760395320739 NUDATSat 1 42787U 17036Y 23089.84452044 .00176221 00000-0 19275-2 0 9993 2 42787 97.1541 136.5320 0002316 22.7045 337.4405 15.62727407321237 SUCHAI 1 1 42788U 17036Z 23089.63794839 .00082805 00000-0 16455-2 0 9993 2 42788 97.1580 131.2037 0005777 29.9911 330.1669 15.46657559321114 SKCUBE 1 42789U 17036AA 23088.85408217 .00059047 00000-0 13060-2 0 9990 2 42789 97.1593 129.3162 0006584 34.1217 326.0454 15.43598623320848 VZLUSAT 1 1 42790U 17036AB 23088.64021097 .00177470 00000-0 20659-2 0 9999 2 42790 97.1541 135.1231 0002226 11.1767 348.9540 15.61104925321184 VENTA 1 1 42791U 17036AC 23088.66360238 .00047655 00000-0 11551-2 0 9997 2 42791 97.1607 128.5173 0007147 36.3068 323.8662 15.40897318320761 Robusta 1B 1 42792U 17036AD 23089.34582050 .00072810 00000-0 14948-2 0 9996 2 42792 97.1573 130.7510 0005789 32.8838 327.2771 15.45745795320990 D-SAT 1 42794U 17036AF 23088.70434437 .00005582 00000-0 45139-3 0 9991 2 42794 97.4632 84.5213 0117450 208.2847 151.1965 14.94854800314055 TechnoSat 1 42829U 17042E 23089.79674345 .00004477 00000-0 43307-3 0 9998 2 42829 97.3963 291.9213 0014766 125.1419 235.1188 14.93160894310791 AO-91 1 43017U 17073E 23089.44608405 .00013482 00000-0 95891-3 0 9999 2 43017 97.6420 336.9071 0236332 329.4487 29.3135 14.84925319289491 PICSAT 1 43132U 18004X 23089.49040123 .00086978 00000-0 16856-2 0 9997 2 43132 97.3367 171.0267 0004980 60.7855 299.3893 15.47374125290335 AO-92 1 43137U 18004AC 23089.74740956 .00047561 00000-0 11712-2 0 9992 2 43137 97.3337 168.3941 0006512 73.1215 287.0745 15.40422177290206 TianYi 2 1 43155U 18008A 23089.75502609 .00023586 00000-0 10188-2 0 9995 2 43155 97.3099 144.2859 0013610 217.6582 281.9151 15.22409573286700 Zhou Enlai 1 43156U 18008B 23089.78648659 .00025716 00000-0 11030-2 0 9999 2 43156 97.3135 144.3318 0011071 218.2253 280.8111 15.22658569286631 TianYi 6 1 43158U 18008D 23089.70838204 .00020091 00000-0 92398-3 0 9998 2 43158 97.3121 141.5168 0010810 222.1797 255.7166 15.20325034286487 S-Net D 1 43186U 18014G 23089.81076572 .00007683 00000-0 62437-3 0 9993 2 43186 97.6400 355.0344 0013113 66.9421 293.3184 14.99799445281801 S-Net B 1 43187U 18014H 23089.14428280 .00007058 00000-0 57421-3 0 9990 2 43187 97.6396 354.3167 0013182 68.7598 291.5032 14.99784574281700 S-Net A 1 43188U 18014J 23089.81170632 .00007699 00000-0 62571-3 0 9993 2 43188 97.6405 355.0533 0013251 66.5426 293.7189 14.99796793281804 S-Net C 1 43189U 18014K 23089.21280544 .00007280 00000-0 59212-3 0 9996 2 43189 97.6401 354.3679 0013460 67.2547 293.0097 14.99781011280265 Shaonian Xing 1 43199U 18015H 23089.82705978 .00108334 00000-0 15055-2 0 9996 2 43199 97.5394 243.9399 0006384 106.8347 0.4916 15.56607407287552 CubeBel-1 1 43666U 18083E 23089.90150787 .00034972 00000-0 10905-2 0 9996 2 43666 97.3919 121.2923 0011582 50.5541 67.6153 15.33091021245185 Changshagaoxin 1 43669U 18083H 23089.84660014 .00030860 00000-0 10481-2 0 9992 2 43669 97.3900 116.2433 0009291 52.4872 72.5218 15.30393004244943 Ten-Koh 1 43677U 18084G 23089.18812937 .00005357 00000-0 52594-3 0 9997 2 43677 97.9987 227.7161 0016000 53.0534 307.2147 14.92522784240274 PO-101 1 43678U 18084H 23089.78987316 .00002738 00000-0 26816-3 0 9996 2 43678 98.0077 232.2535 0010813 63.0161 297.2157 14.93101456240567 QO-100 1 43700U 18090A 23089.08060913 .00000137 00000-0 00000+0 0 9991 2 43700 0.0176 166.4686 0001102 196.3963 239.1402 1.00272284 16136 Reaktor Hello World 1 43743U 18096AA 23089.88126834 .00078150 00000-0 14268-2 0 9991 2 43743 97.3224 175.2325 0011205 111.7098 248.5347 15.49074608242017 MinXSS-2 1 43758U 18099A 23089.12931691 .00011760 00000-0 93826-3 0 9994 2 43758 97.5870 154.9963 0016995 35.3878 324.8470 15.00337223235886 AO-95 1 43770U 18099N 23089.14560681 .00007952 00000-0 66072-3 0 9998 2 43770 97.5823 152.8294 0014421 40.1160 320.1125 14.98917199235767 RANGE-B 1 43772U 18099Q 23089.43431339 .00011641 00000-0 93058-3 0 9993 2 43772 97.5902 155.6138 0009903 21.3110 338.8524 15.00340824235858 RANGE-A 1 43773U 18099R 23089.12387276 .00007367 00000-0 63009-3 0 9993 2 43773 97.5737 151.1220 0013463 32.9325 327.2734 14.97829543235726 MOVE-II 1 43780U 18099Y 23089.40932196 .00016859 00000-0 12879-2 0 9993 2 43780 97.5747 155.1719 0010143 61.8082 298.4166 15.01984632235900 SNUSat 2 1 43782U 18099AA 23089.10670812 .00008330 00000-0 69322-3 0 9997 2 43782 97.5801 153.3078 0011307 27.8029 332.3797 14.98872616235784 SnugLite 1 43784U 18099AC 23089.75345032 .00009202 00000-0 75471-3 0 9994 2 43784 97.5770 153.5727 0014148 27.3429 332.8536 14.99376860235911 ITASat 1 1 43786U 18099AE 23089.86820836 .00008975 00000-0 74827-3 0 9998 2 43786 97.5858 154.5632 0015168 34.4731 325.7473 14.98740247235918 EAGLET 1 1 43790U 18099AJ 23088.88990279 .00005314 00000-0 44862-3 0 9993 2 43790 97.5831 154.1304 0013369 36.4894 323.7237 14.98461904235500 ESEO 1 43792U 18099AL 23089.11111036 .00003834 00000-0 33535-3 0 9998 2 43792 97.5774 153.0343 0013345 37.2644 322.9502 14.97249694235555 CSIM 1 43793U 18099AM 23089.46225565 .00016220 00000-0 12204-2 0 9992 2 43793 97.5844 156.4338 0016248 37.5015 322.7340 15.02506323235757 Astrocast 0.1 1 43798U 18099AS 23089.12846594 .00014419 00000-0 11233-2 0 9990 2 43798 97.5918 155.5256 0014818 8.7917 351.3564 15.01228417235902 JO-97 1 43803U 18099AX 23089.88538874 .00009905 00000-0 80263-3 0 9993 2 43803 97.5801 154.5053 0014194 23.7223 336.4652 14.99821275235952 Suomi 100 1 43804U 18099AY 23089.13222278 .00010101 00000-0 82384-3 0 9996 2 43804 97.5821 153.6049 0015538 36.5475 323.6805 14.99550230235840 Al Farabi 2 1 43805U 18099AZ 23089.75622586 .00009999 00000-0 78813-3 0 9996 2 43805 97.5855 155.1605 0007909 24.7227 335.4341 15.00936342235986 CHOMPTT 1 43855U 18104G 23088.82023949 .00038091 00000-0 10735-2 0 9996 2 43855 85.0334 219.9650 0012814 254.9354 105.0478 15.36183325238375 ISAT 1 43879U 18111D 23089.54453096 .00012314 00000-0 96082-3 0 9990 2 43879 97.6508 355.1247 0015904 58.7351 301.5428 15.01195461230510 UWE-4 1 43880U 18111E 23088.73100221 .00010573 00000-0 82753-3 0 9996 2 43880 97.6451 355.1727 0018328 82.6814 277.6493 15.01081941232441 Sparrow 1 43881U 18111F 23089.50294573 .00011496 00000-0 89075-3 0 9996 2 43881 97.6492 356.3596 0013687 102.9903 257.2850 15.01505044230570 Lume 1 1 43908U 18111AJ 23089.46434908 .00042553 00000-0 10215-2 0 9996 2 43908 97.1528 334.1155 0016150 122.2023 238.0793 15.41105234237241 FO-99 1 43937U 19003F 23089.53620003 .00063221 00000-0 13500-2 0 9995 2 43937 97.0986 118.1349 0015211 194.1440 165.9385 15.44523097233877 AstroCast 0.2 1 44083U 19018F 23089.71061802 .00082165 00000-0 19857-2 0 9999 2 44083 97.2779 149.2906 0008321 184.7828 175.3341 15.40821783222295 AISTechSat 3 1 44103U 19018AB 23089.09283959 .00033516 00000-0 93442-3 0 9991 2 44103 97.2636 148.3028 0010352 190.0226 194.9562 15.36642569222340 AISat 1 1 44104U 19018AC 23089.52170739 .00032878 00000-0 71302-3 0 9992 2 44104 97.3728 179.6353 0044316 182.9828 177.1162 15.43267608223577 Prox-1 1 44339U 19036A 23089.57310316 .00012136 00000-0 25257-2 0 9996 2 44339 23.9992 183.9198 0010703 116.2974 243.8619 14.58272817200199 Move-IIb 1 44398U 19038N 23089.43761197 .00061200 00000-0 19255-2 0 9992 2 44398 97.6588 68.9895 0014487 198.5693 161.5022 15.32628300206570 SONATE 1 44400U 19038Q 23088.86157925 .00016340 00000-0 77008-3 0 9996 2 44400 97.6783 65.0129 0019676 223.1033 136.8661 15.19411771206185 BeeSat 9 1 44412U 19038AC 23089.17053064 .00034184 00000-0 13301-2 0 9994 2 44412 97.6699 67.4743 0014842 214.2987 145.7294 15.25835392206098 JAISAT-1 1 44419U 19038F 23089.20337745 .00033353 00000-0 12839-2 0 9998 2 44419 97.6705 68.5509 0014121 209.3820 150.6626 15.26208326206474 Taurus 1 1 44530U 19059C 23089.67051692 .00007975 00000-0 20989-2 0 9996 2 44530 98.5474 196.3381 0011536 333.3805 26.6785 14.49281639187262 Duchifat 3 1 44854U 19089C 23089.70702838 .00012766 00000-0 88976-3 0 9992 2 44854 36.9643 199.8482 0009104 34.6884 79.4646 15.04820704181003 OPS-SAT 1 44878U 19092F 23089.05495676 .00038972 00000-0 13383-2 0 9995 2 44878 97.4788 277.0141 0009475 61.7692 298.4504 15.29980947181673 TO-108 1 44881U 19093C 23089.79705316 .00001990 00000-0 25513-3 0 9995 2 44881 97.8645 169.5830 0014344 339.0131 21.0475 14.82324688177183 FloripaSat 1 1 44885U 19093G 23089.67247093 .00006774 00000-0 79713-3 0 9995 2 44885 97.8704 171.7391 0013093 342.0979 17.9750 14.85092304177296 RS-44 1 44909U 19096E 23088.86826647 .00000040 00000-0 11454-3 0 9991 2 44909 82.5238 40.6420 0217867 12.7318 347.9163 12.79719546152018 BY70-2 1 45857U 20042B 23089.26042777 .00028177 00000-0 31298-2 0 9994 2 45857 97.9274 169.0732 0009243 253.1723 185.1764 14.87116930147798 UPMSat 2 1 46276U 20061E 23089.75779858 .00013927 00000-0 61294-3 0 9999 2 46276 97.3537 159.0270 0000921 166.4738 193.6523 15.21965296142352 AmicalSat 1 46287U 20061R 23089.75566071 .00020189 00000-0 99671-3 0 9990 2 46287 97.4077 157.8295 0002171 43.6868 316.4537 15.17913741141808 SALSAT 1 46495U 20068K 23088.85925105 .00009258 00000-0 62280-3 0 9995 2 46495 97.7623 36.1094 0016955 35.1331 325.1010 15.06848479137127 BY70-3 1 46839U 20079N 23089.78347145 .00885679 36664-3 19255-2 0 9994 2 46839 97.1450 167.4542 0007973 265.1316 243.9810 15.98316263134703 CAPE 3 1 47309U 21002A 23088.24306655 .00043441 00000-0 12288-2 0 9999 2 47309 60.6810 7.1781 0031480 136.1919 224.1679 15.35539622121989 AO-109 1 47311U 21002C 23089.07124804 .00036829 00000-0 10797-2 0 9993 2 47311 60.6838 1.7418 0029819 132.8664 227.4940 15.34540815122132 MiTEE 1 1 47314U 21002F 23089.73590665 .00180772 00000-0 23387-2 0 9997 2 47314 60.6732 336.4634 0022869 127.2734 233.0459 15.57691822122633 ExoCube 2 1 47319U 21002L 23089.16460136 .00037153 00000-0 11109-2 0 9991 2 47319 60.6821 3.2313 0030275 135.0737 225.2813 15.33902737122079 UVSQ-SAT 1 47438U 21006AB 23088.73708886 .00021559 00000-0 95117-3 0 9991 2 47438 97.3946 147.0942 0009851 10.0925 350.0507 15.21745092120552 YUSAT 1 1 47439U 21006AC 23089.66211146 .00031070 00000-0 12975-2 0 9992 2 47439 97.3953 148.4997 0009033 4.7015 355.4305 15.23544376120726 SOMP 2b 1 47445U 21006AJ 23089.08433327 .00021295 00000-0 95679-3 0 9993 2 47445 97.3919 146.8025 0009848 14.1298 346.0211 15.21125215120582 IDEASSat 1 47458U 21006AX 23089.69711480 .00021915 00000-0 99585-3 0 9992 2 47458 97.4010 148.1467 0009060 11.1887 348.9548 15.20736424120663 CubeSX-Sirius-HSE 1 47951U 21022V 23089.76892344 .00013771 00000-0 80752-3 0 9992 2 47951 97.5057 348.4594 0017604 242.6732 201.9636 15.11752060111178 CubeSX-HSE 1 47952U 21022W 23089.81190222 .00013493 00000-0 79000-3 0 9990 2 47952 97.5042 348.5404 0017569 242.8316 203.0674 15.11812364111184 KSU-Cubesat 1 47954U 21022Y 23089.68927050 .00017292 00000-0 99280-3 0 9997 2 47954 97.5057 348.6999 0016910 241.2212 118.7321 15.12471555110903 GRBAlpha 1 47959U 21022AD 23089.86477905 .00013719 00000-0 80172-3 0 9991 2 47959 97.5053 348.6630 0017303 243.9158 181.2208 15.11880860110014 Orbicraft-Zorkiy 1 47960U 21022AE 23089.78872171 .00015584 00000-0 89695-3 0 9999 2 47960 97.5077 348.9149 0016925 242.9035 187.6024 15.12407564110701 STECCO 1 47962U 21022AG 23089.73978593 .00024549 00000-0 12415-2 0 9997 2 47962 97.5035 350.6422 0011883 230.5021 216.7488 15.16969459110132 DO-111 1 47963U 21022AH 23089.48132605 .00134688 00000-0 36310-2 0 9992 2 47963 97.5056 355.1276 0008689 190.3320 169.7747 15.37240710110419 MO-110 1 47964U 21022AJ 23089.28412089 .00029167 00000-0 14459-2 0 9993 2 47964 97.5060 350.6892 0014046 226.6231 133.3833 15.17608708110097 FEES 1 48082U 21022AL 23088.98203126 .00043889 00000-0 19338-2 0 9999 2 48082 97.5063 351.0133 0009793 218.0000 142.0545 15.21634426109790 CSS 1 48274U 21035A 23089.81549155 .00042968 00000-0 44567-3 0 9994 2 48274 41.4739 273.8352 0004637 263.8496 228.0750 15.63857478109573 TUBIN 1 48900U 21059X 23089.83554888 .00013471 00000-0 66715-3 0 9993 2 48900 97.5851 223.0818 0009771 188.0154 275.4849 15.17859312 97280 IT-SPINS 1 49017U 21013G 23089.30786018 .00041626 00000-0 11341-2 0 9994 2 49017 51.5930 104.0199 0009865 35.0956 325.0675 15.37021867 97550 LEDSAT 1 49069U 21073D 23089.77309134 .00014512 00000-0 82671-3 0 9997 2 49069 97.4882 162.0373 0025207 34.6796 325.6072 15.12639174 89046 CUTE 1 49263U 21088D 23088.92085093 .00015079 00000-0 10068-2 0 9999 2 49263 97.5524 156.1528 0019455 169.7305 190.4324 15.06952506 82340 TeikyoSat 4 1 49396U 21102B 23088.85718075 .00002764 00000-0 21584-3 0 9991 2 49396 97.5229 143.2907 0014280 9.9370 350.2134 15.01853245 75864 Z-Sat 1 49399U 21102E 23089.87346476 .00006149 00000-0 44437-3 0 9992 2 49399 97.4957 145.3676 0021262 341.5382 18.5070 15.04233672 76117 KOSEN 1 1 49402U 21102H 23089.70191875 .00008622 00000-0 59618-3 0 9995 2 49402 97.4877 145.5868 0020325 329.0939 30.9091 15.05782879 76149 HO-113 1 50466U 21131B 23089.86851943 .00001515 00000-0 50743-3 0 9999 2 50466 98.5536 171.6602 0004572 31.5426 328.6034 14.38791672 66096 Tevel-3 1 50988U 22002E 23089.84622139 .00025908 00000-0 11407-2 0 9992 2 50988 97.4410 157.4997 0009617 145.4818 326.1166 15.21780430 66832 Tevel-8 1 50989U 22002F 23089.79311388 .00025486 00000-0 11244-2 0 9998 2 50989 97.4423 157.4961 0009728 146.3595 309.4936 15.21714986 66824 Tevel-5 1 50998U 22002Q 23089.82666890 .00026384 00000-0 11377-2 0 9998 2 50998 97.4402 157.7781 0011222 142.1566 310.9464 15.22472881 66850 Tevel-6 1 50999U 22002R 23089.82552020 .00026352 00000-0 11362-2 0 9997 2 50999 97.4401 157.7737 0011133 141.5780 312.8508 15.22477570 66853 Tevel-1 1 51013U 22002AF 23089.84563355 .00025488 00000-0 11236-2 0 9999 2 51013 97.4404 157.4525 0009636 146.2747 280.2850 15.21741288 66831 Grizu-263a 1 51025U 22002AT 23089.44324665 .00085301 00000-0 25992-2 0 9991 2 51025 97.4566 160.6180 0010311 149.3716 210.8131 15.33588451 66945 NO-116 1 51031U 22002AZ 23089.17022484 .00047332 00000-0 17847-2 0 9994 2 51031 97.4534 158.8914 0011570 147.9506 212.2438 15.26841975 66828 IRIS-A 1 51044U 22002BN 23088.93748681 .00015847 00000-0 78816-3 0 9995 2 51044 97.4425 155.6699 0009497 150.1033 210.0745 15.17669705 66637 Tevel-7 1 51062U 22002CG 23089.79476603 .00025624 00000-0 11300-2 0 9990 2 51062 97.4429 157.4750 0009863 145.6153 309.8879 15.21725642 66822 Tevel-4 1 51063U 22002CH 23089.80560481 .00025232 00000-0 11141-2 0 9999 2 51063 97.4430 157.4735 0009945 146.0583 348.2338 15.21686381 66824 Tevel-2 1 51069U 22002CP 23089.84809756 .00025623 00000-0 11283-2 0 9991 2 51069 97.4409 157.4760 0009623 146.2080 325.4037 15.21779466 66832 DELFI-PQ 1 51074U 22002CU 23089.46925165 .00054288 00000-0 18904-2 0 9994 2 51074 97.4666 161.0725 0011839 172.1951 187.9475 15.29419432 66943 SO-115 1 51080U 22002DA 23088.43265113 .00031607 00000-0 12710-2 0 9996 2 51080 97.4689 159.1692 0012333 176.3653 183.7676 15.24781593 66729 SO-114 1 51081U 22002DB 23088.16542251 .00031598 00000-0 12670-2 0 9992 2 51081 97.4675 158.8664 0012566 177.9754 182.1537 15.24875015 66684 OreSat0 1 52017U 22026K 23089.48913837 .00029033 00000-0 12654-2 0 9999 2 52017 97.5119 91.8039 0023623 6.5341 353.6198 15.21888368 57562 Planetum 1 1 52738U 22057G 23089.23998581 .00022059 00000-0 10916-2 0 9995 2 52738 97.5276 205.4163 0006709 257.5634 102.4849 15.17797329 46670 Foresail-1 1 52766U 22057AL 23089.80342311 .00014452 00000-0 71889-3 0 9998 2 52766 97.5390 206.8140 0011971 238.8875 225.6801 15.17666143 46781 SNUGLITE 2 1 52899U 22065F 23088.95023516 .00002779 00000-0 60048-3 0 9996 2 52899 98.0555 236.0617 0009203 104.1621 256.0602 14.59048507 39300 CTIM 1 52950U 22074G 23089.36391254 .00042056 00000-0 11841-2 0 9995 2 52950 45.0052 77.5991 0010297 68.0737 292.1263 15.35794908 41457 IO-117 1 53106U 22080B 23088.05176028 -.00000003 00000-0 00000-0 0 9991 2 53106 70.1795 347.5677 0008286 204.3079 155.7190 6.42557135 16603 SelfieSat 1 53951U 22057BA 23088.88195735 .00028438 00000-0 13654-2 0 9992 2 53951 97.5320 205.4805 0009334 253.8165 106.2042 15.18777316 46634 FO-118 1 54684U 22167C 23089.86407659 .00018444 00000-0 10771-2 0 9991 2 54684 97.5487 228.1497 0013947 242.9879 238.9021 15.11884529 16834 /EX